パンスターズ彗星

C/2017 AB5 ( PanSTARRS )

English version
Home page
Updated on May 21, 2018

---------------------------------------------------------------------

・ プロフィール

発見日 2017年1月3日
発見光度 21.3等
発見者 Pan-STARRS 1 telescope (Haleakala)

・ 写真集

・ 軌道要素

Epoch 2018 Feb. 11.0 TT = JDT 2458160.5
T 2018 Feb. 17.66689 TT                                 MPCW
q   9.2165642            (2000.0)            P               Q
z  +0.0000186      Peri.   78.38475     -0.41258361     -0.83519638
 +/-0.0000048      Node    42.69076     +0.47383583     -0.53770032
e   0.9998283      Incl.   32.43108     +0.77798095     -0.11543555
From 60 observations 2017 Jan. 3-2018 Mar. 14, mean residual 0".3.

・ 光度変化

        m1 = 4.5 + 5 logΔ + 10.0 log r

---------------------------------------------------------------------

軌道要素はM.P.E.C. 2018-F152に掲載されたものです。
光度グラフはComet for Windowsで作成したものです。

---------------------------------------------------------------------

Copyright(C) Seiichi Yoshida (comet@aerith.net). All rights reserved.